Stations météo

réclame
Mon MeteoGroup
Inverbervie, Grande-Bretagne (3088): Température de l'air & dewpoint: 13.06.2018 05:00:00 - 19.06.2018 05:00:00 (BST)Inverbervie, Grande-Bretagne (3088): Température de l'air -20cm & Température de l'air -100cm: 13.06.2018 05:00:00 - 19.06.2018 05:00:00 (BST)Inverbervie, Grande-Bretagne (3088): Vitesse du vent & gusts: 13.06.2018 05:00:00 - 19.06.2018 05:00:00 (BST)Inverbervie, Grande-Bretagne (3088): Direction du vent: 13.06.2018 05:00:00 - 19.06.2018 05:00:00 (BST)Inverbervie, Grande-Bretagne (3088): reduced air pressure: 13.06.2018 05:00:00 - 19.06.2018 05:00:00 (BST)Inverbervie, Grande-Bretagne (3088): visibility: 13.06.2018 05:00:00 - 19.06.2018 05:00:00 (BST)Inverbervie, Grande-Bretagne (3088): Quantités de précipitations: 13.06.2018 05:00:00 - 19.06.2018 05:00:00 (BST)
Date & Time tt [°C] td [°C] tt -20cm [°C] tt -100cm [°C] ff [km/h] ff [knt] fx [km/h] fx [knt] dd ppp [hPa] vv [km] rr [mm]
19.06.2018 05:00:00 7,9 3,7 - - 26 14 48 26 WSW 1013,0 40 0,0
19.06.2018 04:00:00 8,6 4,1 - - 31 17 48 26 WSW 1012,3 35 0,0
19.06.2018 03:00:00 8,7 4,0 - - 34 18 50 27 WSW 1011,7 40 0,0
19.06.2018 02:00:00 8,8 3,8 - - 35 19 59 32 W 1011,2 35 -
19.06.2018 01:00:00 9,0 4,0 - - 37 20 57 31 WSW 1010,8 30 -
19.06.2018 00:00:00 9,9 4,2 - - 37 20 59 32 W 1010,5 26 0,0
18.06.2018 23:00:00 9,9 4,7 - - 29 16 50 27 WSW 1010,6 29 0,0
18.06.2018 22:00:00 10,9 4,4 - - 28 15 59 32 W 1010,1 30 0,0
18.06.2018 21:00:00 13,1 5,7 - - 35 19 70 38 W 1008,9 17 0,0
18.06.2018 20:00:00 14,6 4,5 - - 41 22 68 37 WSW 1007,9 30 0,0
18.06.2018 19:00:00 15,7 4,8 - - 42 23 59 32 WSW 1007,9 35 0,0
18.06.2018 18:00:00 15,8 6,2 - - 39 21 65 35 WSW 1007,8 24 0,0
18.06.2018 17:00:00 15,5 5,5 - - 41 22 70 38 WSW 1007,9 40 0,0
18.06.2018 16:00:00 16,7 7,5 - - 55 30 74 40 WSW 1007,7 30 0,0
18.06.2018 15:00:00 17,4 8,5 - - 41 22 72 39 WSW 1008,4 30 0,0
18.06.2018 14:00:00 15,8 5,9 - - 46 25 67 36 WSW 1008,0 28 0,0
18.06.2018 13:00:00 15,3 7,2 - - 39 21 59 32 WSW 1008,6 27 0,0
18.06.2018 12:00:00 14,4 5,7 - - 42 23 61 33 WSW 1008,5 30 0,0
18.06.2018 11:00:00 14,1 7,8 - - 35 19 52 28 WSW 1008,9 27 0,0
18.06.2018 10:00:00 13,4 7,8 13,2 11,7 31 17 48 26 WSW 1009,0 27 0,0
18.06.2018 09:00:00 12,1 7,5 - - 37 20 48 26 WSW 1008,3 29 0,0
18.06.2018 08:00:00 12,2 7,7 - - 34 18 50 27 WSW 1008,0 30 0,0
18.06.2018 07:00:00 11,1 8,3 - - 28 15 - - WSW 1007,7 40 0,0
18.06.2018 06:00:00 10,9 8,5 - - 34 18 50 27 WSW 1007,5 50 0,0
18.06.2018 05:00:00 11,0 8,1 - - 29 16 46 25 WSW 1006,9 50 0,0
18.06.2018 04:00:00 11,7 8,8 - - 35 19 52 28 WSW 1006,4 45 0,0
18.06.2018 03:00:00 12,2 10,3 - - 31 17 50 27 WSW 1005,9 50 0,0
18.06.2018 02:00:00 12,5 11,3 - - 31 17 46 25 WSW 1005,8 50 0,0
18.06.2018 01:00:00 11,8 11,6 - - 24 13 - - SW 1006,0 35 0,0
18.06.2018 00:00:00 11,2 10,8 - - 28 15 - - SW 1006,4 20 0,0
17.06.2018 23:00:00 11,8 11,1 - - 29 16 - - SSW 1006,4 40 0,0
17.06.2018 22:00:00 11,5 10,8 - - 29 16 - - SSW 1006,6 29 0,0
17.06.2018 21:00:00 12,3 10,7 - - 31 17 - - SSW 1006,8 35 0,0
17.06.2018 20:00:00 12,1 10,0 - - 26 14 - - SSW 1006,8 30 0,0
17.06.2018 19:00:00 12,0 9,9 - - 26 14 - - SSW 1007,3 27 0,0
17.06.2018 18:00:00 11,8 9,8 - - 28 15 - - S 1007,7 23 0,0
17.06.2018 17:00:00 11,6 9,8 - - 24 13 - - SSW 1008,1 24 0,0
17.06.2018 16:00:00 13,3 10,3 - - 24 13 - - SSW 1007,8 30 0,0
17.06.2018 15:00:00 13,3 10,0 - - 31 17 - - SSW 1008,1 45 0,0
17.06.2018 14:00:00 14,7 10,7 - - 31 17 - - SSW 1007,9 40 0,0
17.06.2018 13:00:00 15,2 10,5 - - 26 14 46 25 SSW 1007,8 30 0,0
17.06.2018 12:00:00 15,1 9,3 - - 29 16 - - SW 1008,0 19 0,0
17.06.2018 11:00:00 13,4 8,3 - - 24 13 - - SW 1007,8 40 0,0
17.06.2018 10:00:00 13,2 9,3 12,9 11,7 21 11 - - WSW 1008,1 28 0,0
17.06.2018 09:00:00 10,9 9,1 - - 18 10 - - S 1008,2 45 0,0
17.06.2018 08:00:00 10,8 9,5 - - 2 1 - - S 1008,0 27 0,0
17.06.2018 07:00:00 10,4 9,4 - - 0 0 - - N 1007,9 30 0,0
17.06.2018 06:00:00 9,8 8,9 - - 0 0 - - N 1007,5 35 0,0
17.06.2018 05:00:00 9,0 8,6 - - 0 0 - - N 1007,5 30 0,0
17.06.2018 04:00:00 8,6 8,2 - - 5 3 - - S 1007,4 19 0,0
17.06.2018 03:00:00 8,4 8,2 - - 5 3 - - SW 1007,1 50 0,0
17.06.2018 02:00:00 8,1 8,0 - - 4 2 - - N 1007,0 35 0,0
17.06.2018 01:00:00 7,7 7,5 - - 13 7 - - WNW 1006,6 17 0,0
17.06.2018 00:00:00 8,8 8,7 - - 11 6 - - NW 1006,0 35 0,0
16.06.2018 23:00:00 8,7 8,6 - - 9 5 - - NW 1005,9 15 0,0
16.06.2018 22:00:00 10,0 10,0 - - 2 1 - - W 1005,6 7 0,0
16.06.2018 21:00:00 10,3 10,3 - - 11 6 - - NNW 1005,2 9 0,0
16.06.2018 20:00:00 9,7 9,6 - - 13 7 - - SSE 1005,5 0,3 0,0
16.06.2018 19:00:00 9,6 9,5 - - 26 14 - - SE 1005,5 4,6 3,2
16.06.2018 18:00:00 9,6 9,3 - - 21 11 - - E 1006,3 5 4,6
16.06.2018 17:00:00 9,4 9,2 - - 16 9 - - ESE 1006,7 8 0,8
16.06.2018 16:00:00 9,7 9,5 - - 15 8 - - SE 1007,1 7 1,0
16.06.2018 15:00:00 10,1 9,7 - - 21 11 - - SSE 1007,5 5 0,8
16.06.2018 14:00:00 11,0 10,0 - - 24 13 - - S 1007,8 13 0,0
16.06.2018 13:00:00 11,5 9,6 - - 22 12 - - S 1008,3 25 0,0
16.06.2018 12:00:00 11,6 10,0 - - 21 11 - - S 1008,5 15 0,0
16.06.2018 11:00:00 10,5 9,4 - - 26 14 - - S 1008,9 20 0,0
16.06.2018 10:00:00 10,6 9,2 13,2 11,7 26 14 - - S 1009,3 19 0,0
16.06.2018 09:00:00 10,8 9,5 - - 22 12 - - S 1009,7 23 0,0
16.06.2018 08:00:00 10,5 9,4 - - 16 9 - - S 1009,9 20 0,0
16.06.2018 07:00:00 10,1 9,7 - - 15 8 - - S 1010,0 17 0,0
16.06.2018 06:00:00 9,1 8,7 - - 9 5 - - SSE 1010,2 13 0,0
16.06.2018 05:00:00 9,0 8,5 - - 13 7 - - S 1010,4 27 0,0
16.06.2018 04:00:00 8,4 7,3 - - 8 4 - - S 1010,9 25 0,0
16.06.2018 03:00:00 8,9 7,3 - - 2 1 - - WNW 1011,1 45 0,0
16.06.2018 02:00:00 9,3 7,5 - - 11 6 - - W 1011,2 50 0,0
16.06.2018 01:00:00 10,0 7,7 - - 24 13 - - WSW 1011,4 45 0,0
16.06.2018 00:00:00 10,0 7,3 - - 24 13 - - WSW 1011,4 45 0,0
15.06.2018 23:00:00 11,1 8,0 - - 26 14 - - WSW 1010,9 35 0,0
15.06.2018 22:00:00 11,4 8,1 - - 13 7 - - WSW 1011,0 50 0,0
15.06.2018 21:00:00 12,4 8,1 - - 18 10 - - WSW 1010,8 45 0,0
15.06.2018 20:00:00 12,1 7,5 - - 28 15 - - WSW 1010,5 45 0,0
15.06.2018 19:00:00 13,3 8,0 - - 28 15 - - WSW 1010,3 35 0,0
15.06.2018 18:00:00 15,5 8,5 - - 28 15 48 26 SW 1010,0 40 0,0
15.06.2018 17:00:00 15,1 7,5 - - 34 18 46 25 WSW 1010,1 50 0,0
15.06.2018 16:00:00 13,6 7,8 - - 31 17 48 26 WSW 1010,2 35 0,0
15.06.2018 15:00:00 15,2 9,1 - - 35 19 50 27 SW 1009,7 35 0,0
15.06.2018 14:00:00 14,8 7,7 - - 34 18 - - WSW 1009,7 40 0,0
15.06.2018 13:00:00 14,0 8,3 - - 24 13 - - SW 1009,7 35 0,0
15.06.2018 12:00:00 14,0 6,9 - - 34 18 48 26 WSW 1009,5 40 0,0
15.06.2018 11:00:00 14,7 7,2 - - 34 18 46 25 WSW 1009,1 27 0,0
15.06.2018 10:00:00 13,2 7,0 13,2 11,7 29 16 - - WSW 1009,2 27 0,0
15.06.2018 09:00:00 12,2 7,3 - - 28 15 46 25 WSW 1009,3 29 0,0
15.06.2018 08:00:00 11,6 8,1 - - 22 12 - - WSW 1008,8 40 0,0
15.06.2018 07:00:00 9,6 7,6 - - 26 14 - - WSW 1008,5 35 0,0
15.06.2018 06:00:00 8,3 6,7 - - 24 13 - - WSW 1008,4 45 0,0
15.06.2018 05:00:00 8,3 6,6 - - 24 13 - - SW 1008,2 50 0,0
15.06.2018 04:00:00 8,5 6,7 - - 28 15 - - SW 1008,1 25 0,0
15.06.2018 03:00:00 8,2 6,8 - - 29 16 52 28 SW 1007,9 22 0,0
15.06.2018 02:00:00 8,0 5,9 - - 41 22 52 28 WSW 1007,5 35 0,0
15.06.2018 01:00:00 8,3 6,1 - - 31 17 - - SW 1007,6 35 0,0
15.06.2018 00:00:00 8,6 5,7 - - 29 16 - - SW 1006,9 30 0,0
14.06.2018 23:00:00 9,2 5,4 - - 28 15 50 27 WSW 1006,7 45 0,0
14.06.2018 22:00:00 10,4 5,2 - - 37 20 61 33 WSW 1005,6 40 0,0
14.06.2018 21:00:00 12,0 4,2 - - 37 20 65 35 W 1004,9 35 0,0
14.06.2018 20:00:00 13,4 4,6 - - 35 19 68 37 W 1003,8 40 0,0
14.06.2018 19:00:00 14,0 3,7 - - 55 30 78 42 WSW 1002,5 40 0,0
14.06.2018 18:00:00 15,2 4,8 - - 44 24 68 37 W 1000,8 28 0,0
14.06.2018 17:00:00 14,3 6,6 - - 35 19 78 42 W 1000,3 35 0,0
14.06.2018 16:00:00 13,9 6,6 - - 44 24 76 41 W 998,8 45 0,0
14.06.2018 15:00:00 14,8 4,0 - - 46 25 81 44 W 996,3 40 0,0
14.06.2018 14:00:00 14,8 6,7 - - 48 26 81 44 W 994,0 26 0,0
14.06.2018 13:00:00 15,7 8,5 - - 46 25 80 43 W 991,4 30 0,0
14.06.2018 12:00:00 15,5 9,6 - - 52 28 81 44 W 987,7 35 0,0
14.06.2018 11:00:00 15,1 11,5 - - 46 25 68 37 SW 984,7 30 0,0
14.06.2018 10:00:00 14,0 10,9 13,4 11,7 48 26 76 41 SW 985,3 30 0,0
14.06.2018 09:00:00 13,1 12,4 - - 48 26 89 48 SW 985,6 17 0,6
14.06.2018 08:00:00 13,9 12,2 - - 59 32 80 43 SSW 985,2 9 0,0
14.06.2018 07:00:00 13,0 12,0 - - 54 29 70 38 SSW 986,2 17 0,0
14.06.2018 06:00:00 11,7 11,5 - - 41 22 55 30 S 987,9 13 0,0
14.06.2018 05:00:00 11,1 11,1 - - 41 22 61 33 S 989,6 7 0,0
14.06.2018 04:00:00 11,4 11,3 - - 39 21 50 27 S 991,3 8 0,6
14.06.2018 03:00:00 11,4 11,3 - - 39 21 57 31 S 993,0 8 0,0
14.06.2018 02:00:00 11,3 11,3 - - 44 24 72 39 S 994,2 1,2 0,2
14.06.2018 01:00:00 11,4 11,4 - - 42 23 57 31 S 996,3 0,2 1,0
14.06.2018 00:00:00 11,4 11,3 - - 48 26 57 31 S 997,9 3,9 0,4
13.06.2018 23:00:00 11,5 11,3 - - 41 22 50 27 S 999,8 9 0,2
13.06.2018 22:00:00 11,6 11,1 - - 37 20 48 26 S 1001,7 16 0,2
13.06.2018 21:00:00 11,6 10,9 - - 39 21 50 27 SSW 1002,8 11 0,0
13.06.2018 20:00:00 11,4 10,9 - - 34 18 - - S 1004,3 9 0,0
13.06.2018 19:00:00 11,4 10,7 - - 37 20 46 25 S 1005,5 15 0,2
13.06.2018 18:00:00 10,8 10,1 - - 26 14 - - S 1007,0 11 0,0
13.06.2018 17:00:00 12,8 9,3 - - 28 15 - - SSW 1008,2 25 0,0
13.06.2018 16:00:00 14,4 8,6 - - 31 17 52 28 SW 1008,8 29 0,0
13.06.2018 15:00:00 15,2 8,0 - - 31 17 46 25 SW 1009,4 50 0,0
13.06.2018 14:00:00 13,8 9,6 - - 24 13 - - S 1010,2 25 0,0
13.06.2018 13:00:00 14,4 9,1 - - 24 13 - - S 1010,8 20 0,0
13.06.2018 12:00:00 13,1 9,3 - - 28 15 - - SSW 1012,1 20 0,0
13.06.2018 11:00:00 12,1 10,4 - - 16 9 - - S 1012,8 22 0,0
13.06.2018 10:00:00 10,5 8,6 13,5 11,7 15 8 - - SE 1013,9 30 0,0
13.06.2018 09:00:00 10,9 7,9 - - 13 7 - - SSE 1014,9 40 0,0
13.06.2018 08:00:00 10,1 7,6 - - 13 7 - - SSE 1015,0 50 0,0
13.06.2018 07:00:00 10,0 8,2 - - 8 4 - - SSE 1015,9 40 0,0
13.06.2018 06:00:00 9,8 7,9 - - 0 0 - - N 1016,7 50 0,0
13.06.2018 05:00:00 9,6 7,6 - - 0 0 - - N 1016,7 45 0,0

tt = Température de l'air
td = dewpoint
tt -20cm = Température de l'air -20cm
tt -100cm = Température de l'air -100cm
ff = Vitesse du vent
fx = gusts
dd = Direction du vent
ppp = reduced air pressure
vv = visibility
rr = Quantités de précipitations

stations d'obs. à proximité